Time,TemperatureF,DewpointF,PressureIn,WindDirection,WindDirectionDegrees,WindSpeedMPH,WindSpeedGustMPH,Humidity,HourlyPrecipIn,Conditions,Clouds,dailyrainin,SoftwareType,DateUTC
2013-04-17 00:00:00,58.4,56.4,30.27,SSE,162,0.0,0.0,93,0.00,,---,0.00,VWS V14.01,2013-04-17 04:00:00,
2013-04-17 00:01:00,58.3,56.3,30.27,SSE,162,0.0,0.0,93,0.00,,---,0.00,VWS V14.01,2013-04-17 04:01:00,
2013-04-17 00:02:00,58.2,56.2,30.27,SSE,162,0.0,0.0,93,0.00,,---,0.00,VWS V14.01,2013-04-17 04:02:00,
2013-04-17 00:04:00,58.2,56.2,30.27,SSE,162,0.0,0.0,93,0.00,,---,0.00,VWS V14.01,2013-04-17 04:04:00,
2013-04-17 00:10:00,58.2,56.2,30.27,SSE,162,0.0,0.0,93,0.00,,---,0.00,VWS V14.01,2013-04-17 04:10:00,
2013-04-17 00:15:00,58.0,56.0,30.27,SSE,162,0.0,0.0,93,0.00,,---,0.00,VWS V14.01,2013-04-17 04:15:00,
2013-04-17 00:20:00,57.8,55.8,30.27,SSE,162,0.0,0.0,93,0.00,,---,0.00,VWS V14.01,2013-04-17 04:20:00,
2013-04-17 00:25:00,57.9,56.2,30.27,SSE,162,0.0,0.0,94,0.00,,---,0.00,VWS V14.01,2013-04-17 04:25:00,
2013-04-17 00:30:00,58.2,56.5,30.27,SSE,162,0.0,0.0,94,0.00,,---,0.00,VWS V14.01,2013-04-17 04:30:00,
2013-04-17 00:36:00,58.3,56.6,30.27,SSE,162,0.0,0.0,94,0.00,,---,0.00,VWS V14.01,2013-04-17 04:36:00,
2013-04-17 00:41:00,58.2,56.5,30.26,SSE,162,0.0,0.0,94,0.00,,---,0.00,VWS V14.01,2013-04-17 04:41:00,
2013-04-17 00:46:00,58.1,56.4,30.26,SSE,162,0.0,0.0,94,0.00,,---,0.00,VWS V14.01,2013-04-17 04:46:00,
2013-04-17 00:51:00,58.2,56.5,30.26,SSE,162,0.0,0.0,94,0.00,,---,0.00,VWS V14.01,2013-04-17 04:51:00,
2013-04-17 00:56:00,57.9,56.2,30.26,SSE,162,0.0,0.0,94,0.00,,---,0.00,VWS V14.01,2013-04-17 04:56:00,
2013-04-17 01:01:00,57.4,55.7,30.26,SSE,162,0.0,0.0,94,0.00,,---,0.00,VWS V14.01,2013-04-17 05:01:00,
2013-04-17 01:07:00,57.5,55.8,30.26,SSE,162,0.0,0.0,94,0.00,,---,0.00,VWS V14.01,2013-04-17 05:07:00,
2013-04-17 01:12:00,57.3,55.6,30.26,SSE,162,0.0,0.0,94,0.00,,---,0.00,VWS V14.01,2013-04-17 05:12:00,
2013-04-17 01:17:00,57.3,55.6,30.26,SSE,162,0.0,0.0,94,0.00,,---,0.00,VWS V14.01,2013-04-17 05:17:00,
2013-04-17 01:22:00,57.1,55.7,30.26,SSE,162,0.0,0.0,95,0.00,,---,0.00,VWS V14.01,2013-04-17 05:22:00,
2013-04-17 01:27:00,57.1,55.7,30.26,SSE,162,0.0,0.0,95,0.00,,---,0.00,VWS V14.01,2013-04-17 05:27:00,
2013-04-17 01:33:00,57.5,56.1,30.26,SSE,162,0.0,0.0,95,0.00,,---,0.00,VWS V14.01,2013-04-17 05:33:00,
2013-04-17 01:38:00,57.4,56.0,30.26,SSE,162,0.0,0.0,95,0.00,,---,0.00,VWS V14.01,2013-04-17 05:38:00,
2013-04-17 01:43:00,57.2,55.8,30.26,SSE,162,0.0,0.0,95,0.00,,---,0.00,VWS V14.01,2013-04-17 05:43:00,
2013-04-17 01:48:00,57.1,55.7,30.26,SSE,162,0.0,0.0,95,0.00,,---,0.00,VWS V14.01,2013-04-17 05:48:00,
2013-04-17 01:53:00,57.3,55.9,30.26,SSE,162,0.0,0.0,95,0.00,,---,0.00,VWS V14.01,2013-04-17 05:53:00,
2013-04-17 01:58:00,57.9,56.5,30.26,SSE,162,0.0,0.0,95,0.00,,---,0.00,VWS V14.01,2013-04-17 05:58:00,
2013-04-17 02:03:00,58.7,57.3,30.26,SSE,162,0.0,0.0,95,0.00,,---,0.00,VWS V14.01,2013-04-17 06:03:00,
2013-04-17 02:08:00,59.8,58.1,30.26,South,169,0.0,3.0,94,0.00,,---,0.00,VWS V14.01,2013-04-17 06:08:00,
2013-04-17 02:14:00,60.5,58.2,30.25,South,169,2.0,3.0,92,0.00,,---,0.00,VWS V14.01,2013-04-17 06:14:00,
2013-04-17 02:19:00,60.9,58.0,30.25,South,184,0.0,5.0,90,0.00,,---,0.00,VWS V14.01,2013-04-17 06:19:00,
2013-04-17 02:24:00,61.2,58.2,30.25,South,186,0.0,5.0,90,0.00,,---,0.00,VWS V14.01,2013-04-17 06:24:00,
2013-04-17 02:29:00,61.2,58.2,30.26,South,186,0.0,5.0,90,0.00,,---,0.00,VWS V14.01,2013-04-17 06:29:00,
2013-04-17 02:34:00,61.2,58.2,30.25,South,186,0.0,0.0,90,0.00,,---,0.00,VWS V14.01,2013-04-17 06:34:00,
2013-04-17 02:39:00,60.9,58.0,30.25,South,186,0.0,1.0,90,0.00,,---,0.00,VWS V14.01,2013-04-17 06:39:00,
2013-04-17 02:44:00,60.9,58.0,30.25,South,186,0.0,1.0,90,0.00,,---,0.00,VWS V14.01,2013-04-17 06:44:00,
2013-04-17 02:49:00,60.8,57.8,30.25,South,186,0.0,1.0,90,0.00,,---,0.00,VWS V14.01,2013-04-17 06:49:00,
2013-04-17 02:54:00,60.7,57.8,30.25,South,186,0.0,1.0,90,0.00,,---,0.00,VWS V14.01,2013-04-17 06:54:00,
2013-04-17 02:59:00,60.4,57.8,30.25,South,186,0.0,1.0,91,0.00,,---,0.00,VWS V14.01,2013-04-17 06:59:00,
2013-04-17 03:05:00,59.9,57.3,30.25,South,186,0.0,0.0,91,0.00,,---,0.00,VWS V14.01,2013-04-17 07:05:00,
2013-04-17 03:10:00,59.7,57.4,30.25,South,186,0.0,0.0,92,0.00,,---,0.00,VWS V14.01,2013-04-17 07:10:00,
2013-04-17 03:15:00,59.8,57.5,30.25,South,186,0.0,0.0,92,0.00,,---,0.00,VWS V14.01,2013-04-17 07:15:00,
2013-04-17 03:20:00,59.3,56.7,30.25,South,186,0.0,0.0,91,0.00,,---,0.00,VWS V14.01,2013-04-17 07:20:00,
2013-04-17 03:25:00,58.5,55.9,30.25,South,186,0.0,0.0,91,0.00,,---,0.00,VWS V14.01,2013-04-17 07:25:00,
2013-04-17 03:30:00,57.9,55.6,30.25,South,186,0.0,0.0,92,0.00,,---,0.00,VWS V14.01,2013-04-17 07:30:00,
2013-04-17 03:35:00,58.3,56.6,30.25,South,186,0.0,0.0,94,0.00,,---,0.00,VWS V14.01,2013-04-17 07:35:00,
2013-04-17 03:40:00,58.7,57.0,30.25,South,186,0.0,0.0,94,0.00,,---,0.00,VWS V14.01,2013-04-17 07:40:00,
2013-04-17 03:46:00,59.1,57.4,30.25,South,186,0.0,0.0,94,0.00,,---,0.00,VWS V14.01,2013-04-17 07:46:00,
2013-04-17 03:51:00,58.9,56.9,30.25,South,186,0.0,0.0,93,0.00,,---,0.00,VWS V14.01,2013-04-17 07:51:00,
2013-04-17 03:56:00,58.9,56.9,30.26,South,186,0.0,0.0,93,0.00,,---,0.00,VWS V14.01,2013-04-17 07:56:00,
2013-04-17 04:01:00,59.1,57.4,30.26,South,186,0.0,0.0,94,0.00,,---,0.00,VWS V14.01,2013-04-17 08:01:00,
2013-04-17 04:07:00,59.2,57.2,30.25,South,186,0.0,0.0,93,0.00,,---,0.00,VWS V14.01,2013-04-17 08:07:00,
2013-04-17 04:12:00,59.2,57.2,30.26,South,186,0.0,0.0,93,0.00,,---,0.00,VWS V14.01,2013-04-17 08:12:00,
2013-04-17 04:17:00,59.2,57.5,30.26,South,186,0.0,0.0,94,0.00,,---,0.00,VWS V14.01,2013-04-17 08:17:00,
2013-04-17 04:22:00,58.9,56.9,30.25,South,186,0.0,0.0,93,0.00,,---,0.00,VWS V14.01,2013-04-17 08:22:00,
2013-04-17 04:27:00,58.8,57.1,30.25,South,186,0.0,0.0,94,0.00,,---,0.00,VWS V14.01,2013-04-17 08:27:00,
2013-04-17 04:33:00,58.8,57.1,30.25,South,186,0.0,0.0,94,0.00,,---,0.00,VWS V14.01,2013-04-17 08:33:00,
2013-04-17 04:38:00,58.8,57.1,30.25,South,186,0.0,0.0,94,0.00,,---,0.00,VWS V14.01,2013-04-17 08:38:00,
2013-04-17 04:43:00,58.9,57.2,30.25,South,186,0.0,0.0,94,0.00,,---,0.00,VWS V14.01,2013-04-17 08:43:00,
2013-04-17 04:48:00,58.9,57.2,30.25,South,186,0.0,0.0,94,0.00,,---,0.00,VWS V14.01,2013-04-17 08:48:00,
2013-04-17 04:54:00,59.0,57.3,30.25,South,186,0.0,0.0,94,0.00,,---,0.00,VWS V14.01,2013-04-17 08:54:00,
2013-04-17 04:59:00,59.0,57.3,30.26,SSW,196,0.0,2.0,94,0.00,,---,0.00,VWS V14.01,2013-04-17 08:59:00,
2013-04-17 05:04:00,59.1,57.4,30.26,SSW,196,0.0,0.0,94,0.00,,---,0.00,VWS V14.01,2013-04-17 09:04:00,
2013-04-17 05:09:00,59.2,57.5,30.25,SW,217,0.0,2.0,94,0.00,,---,0.00,VWS V14.01,2013-04-17 09:09:00,
2013-04-17 05:14:00,59.3,57.6,30.25,SW,217,0.0,2.0,94,0.00,,---,0.00,VWS V14.01,2013-04-17 09:14:00,
2013-04-17 05:19:00,59.3,57.6,30.25,SW,217,0.0,0.0,94,0.00,,---,0.00,VWS V14.01,2013-04-17 09:19:00,
2013-04-17 05:24:00,59.3,57.6,30.25,SW,217,0.0,0.0,94,0.00,,---,0.00,VWS V14.01,2013-04-17 09:24:00,
2013-04-17 05:29:00,59.2,57.5,30.25,SW,217,0.0,1.0,94,0.00,,---,0.00,VWS V14.01,2013-04-17 09:29:00,
2013-04-17 05:35:00,59.3,57.6,30.26,West,279,1.0,3.0,94,0.00,,---,0.00,VWS V14.01,2013-04-17 09:35:00,
2013-04-17 05:40:00,59.4,57.7,30.26,SW,229,0.0,3.0,94,0.00,,---,0.00,VWS V14.01,2013-04-17 09:40:00,
2013-04-17 05:45:00,59.5,57.8,30.26,West,267,0.0,3.0,94,0.00,,---,0.00,VWS V14.01,2013-04-17 09:45:00,
2013-04-17 05:50:00,59.6,57.9,30.26,West,267,0.0,1.0,94,0.00,,---,0.00,VWS V14.01,2013-04-17 09:50:00,
2013-04-17 05:56:00,59.7,58.0,30.26,SW,221,0.0,2.0,94,0.00,,---,0.00,VWS V14.01,2013-04-17 09:56:00,
2013-04-17 06:01:00,59.6,57.9,30.26,SW,221,0.0,0.0,94,0.00,,---,0.00,VWS V14.01,2013-04-17 10:01:00,
2013-04-17 06:06:00,59.4,57.7,30.26,SW,221,1.0,1.0,94,0.00,,---,0.00,VWS V14.01,2013-04-17 10:06:00,
2013-04-17 06:11:00,59.3,57.6,30.26,SW,227,0.0,2.0,94,0.00,,---,0.00,VWS V14.01,2013-04-17 10:11:00,
2013-04-17 06:16:00,59.3,57.6,30.26,SW,227,0.0,0.0,94,0.00,,---,0.00,VWS V14.01,2013-04-17 10:16:00,
2013-04-17 06:21:00,59.1,57.4,30.26,SW,227,0.0,0.0,94,0.00,,---,0.00,VWS V14.01,2013-04-17 10:21:00,
2013-04-17 06:26:00,59.0,57.3,30.26,SW,227,0.0,0.0,94,0.00,,---,0.00,VWS V14.01,2013-04-17 10:26:00,
2013-04-17 06:31:00,58.9,57.5,30.26,SW,225,1.0,2.0,95,0.00,,---,0.00,VWS V14.01,2013-04-17 10:31:00,
2013-04-17 06:36:00,59.0,57.6,30.26,SW,225,0.0,2.0,95,0.00,,---,0.00,VWS V14.01,2013-04-17 10:36:00,
2013-04-17 06:42:00,58.8,57.1,30.27,SW,225,0.0,2.0,94,0.00,,---,0.00,VWS V14.01,2013-04-17 10:42:00,
2013-04-17 06:47:00,58.8,57.4,30.27,SW,225,0.0,1.0,95,0.00,,---,0.00,VWS V14.01,2013-04-17 10:47:00,
2013-04-17 06:52:00,58.8,57.4,30.27,SW,225,0.0,1.0,95,0.00,,---,0.00,VWS V14.01,2013-04-17 10:52:00,
2013-04-17 06:57:00,58.9,57.5,30.28,SW,232,0.0,3.0,95,0.00,,---,0.00,VWS V14.01,2013-04-17 10:57:00,
2013-04-17 07:02:00,58.9,57.5,30.28,SW,234,0.0,1.0,95,0.00,,---,0.00,VWS V14.01,2013-04-17 11:02:00,
2013-04-17 07:07:00,59.1,57.7,30.28,SW,234,0.0,2.0,95,0.00,,---,0.00,VWS V14.01,2013-04-17 11:07:00,
2013-04-17 07:13:00,59.3,57.9,30.29,SW,234,0.0,2.0,95,0.00,,---,0.00,VWS V14.01,2013-04-17 11:13:00,
2013-04-17 07:18:00,59.5,58.1,30.30,NW,326,0.0,2.0,95,0.00,,---,0.00,VWS V14.01,2013-04-17 11:18:00,
2013-04-17 07:23:00,59.6,58.2,30.30,NNW,348,0.0,3.0,95,0.00,,---,0.00,VWS V14.01,2013-04-17 11:23:00,
2013-04-17 07:28:00,59.8,58.1,30.30,WNW,285,1.0,3.0,94,0.00,,---,0.00,VWS V14.01,2013-04-17 11:28:00,
2013-04-17 07:33:00,60.0,58.3,30.30,WNW,291,0.0,0.0,94,0.00,,---,0.00,VWS V14.01,2013-04-17 11:33:00,
2013-04-17 07:39:00,60.4,58.7,30.30,WNW,291,0.0,0.0,94,0.00,,---,0.00,VWS V14.01,2013-04-17 11:39:00,
2013-04-17 07:44:00,61.1,59.4,30.30,WNW,293,0.0,1.0,94,0.00,,---,0.00,VWS V14.01,2013-04-17 11:44:00,
2013-04-17 07:49:00,61.8,59.8,30.29,WNW,292,0.0,2.0,93,0.00,,---,0.00,VWS V14.01,2013-04-17 11:49:00,
2013-04-17 07:54:00,62.3,60.0,30.30,WNW,292,0.0,2.0,92,0.00,,---,0.00,VWS V14.01,2013-04-17 11:54:00,
2013-04-17 07:59:00,62.6,59.9,30.29,WNW,292,0.0,2.0,91,0.00,,---,0.00,VWS V14.01,2013-04-17 11:59:00,
2013-04-17 08:04:00,63.5,60.8,30.29,WNW,292,0.0,1.0,91,0.00,,---,0.00,VWS V14.01,2013-04-17 12:04:00,
2013-04-17 08:10:00,64.0,60.7,30.30,West,281,3.0,4.0,89,0.00,,---,0.00,VWS V14.01,2013-04-17 12:10:00,
2013-04-17 08:15:00,64.7,61.1,30.30,West,281,0.0,4.0,88,0.00,,---,0.00,VWS V14.01,2013-04-17 12:15:00,
2013-04-17 08:20:00,64.9,60.9,30.28,SSW,209,4.0,6.0,87,0.00,,---,0.00,VWS V14.01,2013-04-17 12:20:00,
2013-04-17 08:25:00,64.9,60.9,30.28,WSW,242,3.0,6.0,87,0.00,,---,0.00,VWS V14.01,2013-04-17 12:25:00,
2013-04-17 08:30:00,65.3,61.0,30.27,SSW,194,3.0,7.0,86,0.00,,---,0.00,VWS V14.01,2013-04-17 12:30:00,
2013-04-17 08:35:00,65.8,61.8,30.27,WSW,240,1.0,7.0,87,0.00,,---,0.00,VWS V14.01,2013-04-17 12:35:00,
2013-04-17 08:40:00,66.2,61.6,30.27,West,263,1.0,7.0,85,0.00,,---,0.00,VWS V14.01,2013-04-17 12:40:00,
2013-04-17 08:46:00,66.7,62.0,30.26,SSW,211,5.0,7.0,85,0.00,,---,0.00,VWS V14.01,2013-04-17 12:46:00,
2013-04-17 08:51:00,67.4,62.1,30.26,WSW,248,0.0,6.0,83,0.00,,---,0.00,VWS V14.01,2013-04-17 12:51:00,
2013-04-17 08:57:00,68.3,62.6,30.26,WSW,257,3.0,6.0,82,0.00,,---,0.00,VWS V14.01,2013-04-17 12:57:00,
2013-04-17 09:02:00,68.8,63.1,30.26,West,281,6.0,8.0,82,0.00,,---,0.00,VWS V14.01,2013-04-17 13:02:00,
2013-04-17 09:07:00,69.3,62.9,30.27,NW,306,5.0,8.0,80,0.00,,---,0.00,VWS V14.01,2013-04-17 13:07:00,
2013-04-17 09:13:00,69.8,63.0,30.26,WSW,248,3.0,8.0,79,0.00,,---,0.00,VWS V14.01,2013-04-17 13:13:00,
2013-04-17 09:18:00,70.0,62.5,30.26,West,278,7.0,8.0,77,0.00,,---,0.00,VWS V14.01,2013-04-17 13:18:00,
2013-04-17 09:23:00,69.5,62.0,30.26,SSW,195,2.0,9.0,77,0.00,,---,0.00,VWS V14.01,2013-04-17 13:23:00,
2013-04-17 09:28:00,70.7,63.1,30.26,West,275,2.0,9.0,77,0.00,,---,0.00,VWS V14.01,2013-04-17 13:28:00,
2013-04-17 09:33:00,71.2,63.3,30.26,WSW,244,3.0,10.0,76,0.00,,---,0.00,VWS V14.01,2013-04-17 13:33:00,
2013-04-17 09:38:00,72.0,63.7,30.25,West,271,2.0,10.0,75,0.00,,---,0.00,VWS V14.01,2013-04-17 13:38:00,
2013-04-17 09:44:00,72.0,62.9,30.25,WNW,302,3.0,10.0,73,0.00,,---,0.00,VWS V14.01,2013-04-17 13:44:00,
2013-04-17 09:49:00,72.6,63.8,30.25,West,266,3.0,8.0,74,0.00,,---,0.00,VWS V14.01,2013-04-17 13:49:00,
2013-04-17 09:54:00,73.1,63.5,30.25,WNW,282,4.0,8.0,72,0.00,,---,0.00,VWS V14.01,2013-04-17 13:54:00,
2013-04-17 09:59:00,73.6,64.0,30.25,WNW,300,3.0,9.0,72,0.00,,---,0.00,VWS V14.01,2013-04-17 13:59:00,
2013-04-17 10:04:00,73.8,63.8,30.25,WNW,288,5.0,7.0,71,0.00,,---,0.00,VWS V14.01,2013-04-17 14:04:00,
2013-04-17 10:09:00,74.4,64.4,30.25,WNW,290,2.0,8.0,71,0.00,,---,0.00,VWS V14.01,2013-04-17 14:09:00,
2013-04-17 10:14:00,74.8,64.0,30.25,West,266,5.0,9.0,69,0.00,,---,0.00,VWS V14.01,2013-04-17 14:14:00,
2013-04-17 10:19:00,75.1,63.8,30.25,West,270,5.0,10.0,68,0.00,,---,0.00,VWS V14.01,2013-04-17 14:19:00,
2013-04-17 10:25:00,74.6,63.3,30.25,WNW,298,4.0,10.0,68,0.00,,---,0.00,VWS V14.01,2013-04-17 14:25:00,
2013-04-17 10:30:00,75.1,63.8,30.25,ESE,105,1.0,10.0,68,0.00,,---,0.00,VWS V14.01,2013-04-17 14:30:00,
2013-04-17 10:35:00,74.8,63.5,30.25,West,265,1.0,9.0,68,0.00,,---,0.00,VWS V14.01,2013-04-17 14:35:00,
2013-04-17 10:40:00,75.6,63.5,30.25,West,279,3.0,9.0,66,0.00,,---,0.00,VWS V14.01,2013-04-17 14:40:00,
2013-04-17 10:45:00,76.0,64.7,30.25,WNW,286,6.0,10.0,68,0.00,,---,0.00,VWS V14.01,2013-04-17 14:45:00,
2013-04-17 10:50:00,76.6,64.8,30.25,WSW,258,5.0,10.0,67,0.00,,---,0.00,VWS V14.01,2013-04-17 14:50:00,
2013-04-17 10:56:00,76.8,64.2,30.25,NW,323,5.0,10.0,65,0.00,,---,0.00,VWS V14.01,2013-04-17 14:56:00,
2013-04-17 11:01:00,77.2,65.0,30.25,WNW,282,3.0,10.0,66,0.00,,---,0.00,VWS V14.01,2013-04-17 15:01:00,
2013-04-17 11:06:00,76.6,64.8,30.24,NW,321,0.0,7.0,67,0.00,,---,0.00,VWS V14.01,2013-04-17 15:06:00,
2013-04-17 11:12:00,78.1,66.7,30.24,North,355,3.0,7.0,68,0.00,,---,0.00,VWS V14.01,2013-04-17 15:12:00,
2013-04-17 11:17:00,78.4,65.7,30.24,WNW,282,3.0,7.0,65,0.00,,---,0.00,VWS V14.01,2013-04-17 15:17:00,
2013-04-17 11:22:00,78.2,64.1,30.24,WSW,254,6.0,7.0,62,0.00,,---,0.00,VWS V14.01,2013-04-17 15:22:00,
2013-04-17 11:27:00,78.8,66.9,30.24,WNW,298,3.0,7.0,67,0.00,,---,0.00,VWS V14.01,2013-04-17 15:27:00,
2013-04-17 11:32:00,78.7,64.1,30.25,WNW,292,4.0,5.0,61,0.00,,---,0.00,VWS V14.01,2013-04-17 15:32:00,
2013-04-17 11:37:00,78.3,64.7,30.24,NW,319,2.0,6.0,63,0.00,,---,0.00,VWS V14.01,2013-04-17 15:37:00,
2013-04-17 11:42:00,77.6,64.9,30.24,WNW,302,5.0,6.0,65,0.00,,---,0.00,VWS V14.01,2013-04-17 15:42:00,
2013-04-17 11:48:00,78.6,65.4,30.24,West,270,1.0,6.0,64,0.00,,---,0.00,VWS V14.01,2013-04-17 15:48:00,
2013-04-17 11:53:00,79.2,64.6,30.24,WNW,295,2.0,6.0,61,0.00,,---,0.00,VWS V14.01,2013-04-17 15:53:00,
2013-04-17 11:58:00,80.5,66.8,30.24,West,271,3.0,7.0,63,0.00,,---,0.00,VWS V14.01,2013-04-17 15:58:00,
2013-04-17 12:04:00,80.3,65.2,30.24,NW,317,5.0,9.0,60,0.00,,---,0.00,VWS V14.01,2013-04-17 16:04:00,
2013-04-17 12:09:00,79.9,64.8,30.24,NNW,328,7.0,9.0,60,0.00,,---,0.00,VWS V14.01,2013-04-17 16:09:00,
2013-04-17 12:14:00,79.8,64.2,30.23,NW,313,4.0,9.0,59,0.00,,---,0.00,VWS V14.01,2013-04-17 16:14:00,
2013-04-17 12:19:00,79.1,65.4,30.23,West,267,1.0,4.0,63,0.00,,---,0.00,VWS V14.01,2013-04-17 16:19:00,
2013-04-17 12:24:00,79.6,64.5,30.23,NW,316,1.0,5.0,60,0.00,,---,0.00,VWS V14.01,2013-04-17 16:24:00,
2013-04-17 12:29:00,79.8,64.7,30.23,West,263,5.0,6.0,60,0.00,,---,0.00,VWS V14.01,2013-04-17 16:29:00,
2013-04-17 12:34:00,79.7,65.5,30.23,WNW,291,2.0,6.0,62,0.00,,---,0.00,VWS V14.01,2013-04-17 16:34:00,
2013-04-17 12:40:00,81.5,66.3,30.23,NW,313,5.0,6.0,60,0.00,,---,0.00,VWS V14.01,2013-04-17 16:40:00,
2013-04-17 12:45:00,81.8,64.6,30.23,NNW,333,8.0,8.0,56,0.00,,---,0.00,VWS V14.01,2013-04-17 16:45:00,
2013-04-17 12:50:00,80.9,64.8,30.23,NW,319,5.0,10.0,58,0.00,,---,0.00,VWS V14.01,2013-04-17 16:50:00,
2013-04-17 12:55:00,80.5,64.9,30.22,WNW,290,2.0,10.0,59,0.00,,---,0.00,VWS V14.01,2013-04-17 16:55:00,
2013-04-17 13:00:00,80.9,64.2,30.22,North,5,2.0,10.0,57,0.00,,---,0.00,VWS V14.01,2013-04-17 17:00:00,
2013-04-17 13:05:00,82.7,68.4,30.22,NW,306,5.0,8.0,62,0.00,,---,0.00,VWS V14.01,2013-04-17 17:05:00,
2013-04-17 13:10:00,82.1,65.4,30.22,North,355,4.0,8.0,57,0.00,,---,0.00,VWS V14.01,2013-04-17 17:10:00,
2013-04-17 13:15:00,81.9,66.7,30.22,North,355,6.0,9.0,60,0.00,,---,0.00,VWS V14.01,2013-04-17 17:15:00,
2013-04-17 13:20:00,82.5,66.2,30.22,NW,325,6.0,7.0,58,0.00,,---,0.00,VWS V14.01,2013-04-17 17:20:00,
2013-04-17 13:25:00,82.3,65.6,30.22,NNW,333,5.0,7.0,57,0.00,,---,0.00,VWS V14.01,2013-04-17 17:25:00,
2013-04-17 13:31:00,82.8,65.0,30.22,WNW,299,4.0,9.0,55,0.00,,---,0.00,VWS V14.01,2013-04-17 17:31:00,
2013-04-17 13:36:00,82.9,65.6,30.22,West,279,4.0,7.0,56,0.00,,---,0.00,VWS V14.01,2013-04-17 17:36:00,
2013-04-17 13:41:00,82.9,65.6,30.21,WNW,290,0.0,7.0,56,0.00,,---,0.00,VWS V14.01,2013-04-17 17:41:00,
2013-04-17 13:46:00,82.9,65.6,30.21,NNW,344,3.0,5.0,56,0.00,,---,0.00,VWS V14.01,2013-04-17 17:46:00,
2013-04-17 13:51:00,82.8,65.0,30.21,NE,42,2.0,9.0,55,0.00,,---,0.00,VWS V14.01,2013-04-17 17:51:00,
2013-04-17 13:56:00,81.3,63.1,30.21,NNE,18,2.0,9.0,54,0.00,,---,0.00,VWS V14.01,2013-04-17 17:56:00,
2013-04-17 14:02:00,82.1,62.2,30.21,NNW,329,5.0,7.0,51,0.00,,---,0.00,VWS V14.01,2013-04-17 18:02:00,
2013-04-17 14:07:00,82.5,63.7,30.20,NNE,20,3.0,8.0,53,0.00,,---,0.00,VWS V14.01,2013-04-17 18:07:00,
2013-04-17 14:12:00,81.5,64.3,30.20,SSW,213,1.0,8.0,56,0.00,,---,0.00,VWS V14.01,2013-04-17 18:12:00,
2013-04-17 14:17:00,82.4,65.7,30.20,NW,325,4.0,4.0,57,0.00,,---,0.00,VWS V14.01,2013-04-17 18:17:00,
2013-04-17 14:22:00,83.0,64.7,30.20,WNW,299,4.0,11.0,54,0.00,,---,0.00,VWS V14.01,2013-04-17 18:22:00,
2013-04-17 14:28:00,83.7,65.3,30.20,North,11,3.0,11.0,54,0.00,,---,0.00,VWS V14.01,2013-04-17 18:28:00,
2013-04-17 14:33:00,82.2,63.4,30.20,West,262,3.0,5.0,53,0.00,,---,0.00,VWS V14.01,2013-04-17 18:33:00,
2013-04-17 14:38:00,83.0,67.2,30.19,North,355,0.0,7.0,59,0.00,,---,0.00,VWS V14.01,2013-04-17 18:38:00,
2013-04-17 14:43:00,82.2,65.0,30.19,North,360,3.0,7.0,56,0.00,,---,0.00,VWS V14.01,2013-04-17 18:43:00,
2013-04-17 14:49:00,81.1,63.9,30.19,NNW,332,3.0,4.0,56,0.00,,---,0.00,VWS V14.01,2013-04-17 18:49:00,
2013-04-17 14:54:00,80.8,63.7,30.19,NNW,343,4.0,5.0,56,0.00,,---,0.00,VWS V14.01,2013-04-17 18:54:00,
2013-04-17 14:59:00,80.6,62.4,30.19,North,360,1.0,5.0,54,0.00,,---,0.00,VWS V14.01,2013-04-17 18:59:00,
2013-04-17 15:04:00,80.7,63.0,30.18,East,85,3.0,4.0,55,0.00,,---,0.00,VWS V14.01,2013-04-17 19:04:00,
2013-04-17 15:09:00,83.0,64.7,30.18,NNE,24,0.0,4.0,54,0.00,,---,0.00,VWS V14.01,2013-04-17 19:09:00,
2013-04-17 15:14:00,83.7,62.5,30.18,NNW,329,2.0,5.0,49,0.00,,---,0.00,VWS V14.01,2013-04-17 19:14:00,
2013-04-17 15:19:00,83.7,63.1,30.17,WNW,297,3.0,6.0,50,0.00,,---,0.00,VWS V14.01,2013-04-17 19:19:00,
2013-04-17 15:25:00,83.8,62.0,30.17,North,360,2.0,7.0,48,0.00,,---,0.00,VWS V14.01,2013-04-17 19:25:00,
2013-04-17 15:30:00,84.1,62.3,30.17,NW,318,3.0,7.0,48,0.00,,---,0.00,VWS V14.01,2013-04-17 19:30:00,
2013-04-17 15:35:00,84.0,61.6,30.17,East,82,1.0,5.0,47,0.00,,---,0.00,VWS V14.01,2013-04-17 19:35:00,
2013-04-17 15:40:00,84.5,62.1,30.17,North,11,2.0,6.0,47,0.00,,---,0.00,VWS V14.01,2013-04-17 19:40:00,
2013-04-17 15:45:00,84.5,62.1,30.17,NNW,337,2.0,7.0,47,0.00,,---,0.00,VWS V14.01,2013-04-17 19:45:00,
2013-04-17 15:50:00,83.3,61.6,30.17,WNW,287,0.0,4.0,48,0.00,,---,0.00,VWS V14.01,2013-04-17 19:50:00,
2013-04-17 15:55:00,83.0,61.9,30.17,North,360,3.0,5.0,49,0.00,,---,0.00,VWS V14.01,2013-04-17 19:55:00,
2013-04-17 16:01:00,83.4,61.1,30.17,NNW,343,0.0,5.0,47,0.00,,---,0.00,VWS V14.01,2013-04-17 20:01:00,
2013-04-17 16:06:00,83.5,61.2,30.16,NNE,22,0.0,3.0,47,0.00,,---,0.00,VWS V14.01,2013-04-17 20:06:00,
2013-04-17 16:12:00,82.7,60.4,30.16,East,82,3.0,5.0,47,0.00,,---,0.00,VWS V14.01,2013-04-17 20:12:00,
2013-04-17 16:17:00,82.7,60.4,30.16,SE,136,3.0,7.0,47,0.00,,---,0.00,VWS V14.01,2013-04-17 20:17:00,
2013-04-17 16:22:00,82.4,59.6,30.15,NE,46,1.0,7.0,46,0.00,,---,0.00,VWS V14.01,2013-04-17 20:22:00,
2013-04-17 16:27:00,83.0,62.5,30.15,North,355,1.0,7.0,50,0.00,,---,0.00,VWS V14.01,2013-04-17 20:27:00,
2013-04-17 16:33:00,82.5,59.7,30.15,ESE,119,1.0,3.0,46,0.00,,---,0.00,VWS V14.01,2013-04-17 20:33:00,
2013-04-17 16:38:00,82.2,61.7,30.15,SSW,192,4.0,4.0,50,0.00,,---,0.00,VWS V14.01,2013-04-17 20:38:00,
2013-04-17 16:43:00,82.3,60.1,30.15,NW,311,1.0,4.0,47,0.00,,---,0.00,VWS V14.01,2013-04-17 20:43:00,
2013-04-17 16:48:00,81.4,59.3,30.15,WSW,238,0.0,1.0,47,0.00,,---,0.00,VWS V14.01,2013-04-17 20:48:00,
2013-04-17 16:53:00,81.8,59.0,30.15,WSW,238,0.0,1.0,46,0.00,,---,0.00,VWS V14.01,2013-04-17 20:53:00,
2013-04-17 16:59:00,82.0,61.0,30.14,WSW,238,1.0,1.0,49,0.00,,---,0.00,VWS V14.01,2013-04-17 20:59:00,
2013-04-17 17:04:00,82.2,61.7,30.14,North,355,3.0,3.0,50,0.00,,---,0.00,VWS V14.01,2013-04-17 21:04:00,
2013-04-17 17:09:00,82.7,61.0,30.14,NNW,336,0.0,5.0,48,0.00,,---,0.00,VWS V14.01,2013-04-17 21:09:00,
2013-04-17 17:14:00,82.6,60.3,30.14,NNE,22,0.0,5.0,47,0.00,,---,0.00,VWS V14.01,2013-04-17 21:14:00,
2013-04-17 17:19:00,82.6,60.9,30.14,WNW,302,0.0,4.0,48,0.00,,---,0.00,VWS V14.01,2013-04-17 21:19:00,
2013-04-17 17:25:00,82.3,60.1,30.14,WNW,302,0.0,4.0,47,0.00,,---,0.00,VWS V14.01,2013-04-17 21:25:00,
2013-04-17 17:30:00,82.6,63.2,30.14,WNW,302,0.0,4.0,52,0.00,,---,0.00,VWS V14.01,2013-04-17 21:30:00,
2013-04-17 17:35:00,82.4,61.3,30.14,WNW,289,0.0,3.0,49,0.00,,---,0.00,VWS V14.01,2013-04-17 21:35:00,
2013-04-17 17:40:00,82.1,61.1,30.14,WNW,292,0.0,3.0,49,0.00,,---,0.00,VWS V14.01,2013-04-17 21:40:00,
2013-04-17 17:45:00,81.5,59.9,30.14,WNW,292,0.0,3.0,48,0.00,,---,0.00,VWS V14.01,2013-04-17 21:45:00,
2013-04-17 17:50:00,81.2,60.2,30.14,SSW,205,0.0,2.0,49,0.00,,---,0.00,VWS V14.01,2013-04-17 21:50:00,
2013-04-17 17:55:00,81.1,61.3,30.14,SSW,202,2.0,2.0,51,0.00,,---,0.00,VWS V14.01,2013-04-17 21:55:00,
2013-04-17 18:01:00,80.8,61.0,30.14,SSW,194,1.0,2.0,51,0.00,,---,0.00,VWS V14.01,2013-04-17 22:01:00,
2013-04-17 18:06:00,80.5,60.7,30.14,SSE,154,4.0,6.0,51,0.00,,---,0.00,VWS V14.01,2013-04-17 22:06:00,
2013-04-17 18:11:00,79.9,62.3,30.14,South,170,5.0,8.0,55,0.00,,---,0.00,VWS V14.01,2013-04-17 22:11:00,
2013-04-17 18:16:00,79.4,62.9,30.14,South,173,3.0,4.0,57,0.00,,---,0.00,VWS V14.01,2013-04-17 22:16:00,
2013-04-17 18:21:00,79.1,62.6,30.14,SSW,196,2.0,5.0,57,0.00,,---,0.00,VWS V14.01,2013-04-17 22:21:00,
2013-04-17 18:26:00,79.0,62.5,30.14,SSE,154,3.0,5.0,57,0.00,,---,0.00,VWS V14.01,2013-04-17 22:26:00,
2013-04-17 18:31:00,78.9,63.4,30.14,South,173,1.0,1.0,59,0.00,,---,0.00,VWS V14.01,2013-04-17 22:31:00,
2013-04-17 18:36:00,78.7,63.2,30.14,SSE,163,1.0,5.0,59,0.00,,---,0.00,VWS V14.01,2013-04-17 22:36:00,
2013-04-17 18:42:00,78.5,63.0,30.14,South,175,1.0,5.0,59,0.00,,---,0.00,VWS V14.01,2013-04-17 22:42:00,
2013-04-17 18:47:00,78.4,62.9,30.14,South,171,1.0,3.0,59,0.00,,---,0.00,VWS V14.01,2013-04-17 22:47:00,
2013-04-17 18:52:00,78.3,62.8,30.15,SSE,166,1.0,3.0,59,0.00,,---,0.00,VWS V14.01,2013-04-17 22:52:00,
2013-04-17 18:57:00,78.2,62.2,30.15,South,190,0.0,3.0,58,0.00,,---,0.00,VWS V14.01,2013-04-17 22:57:00,
2013-04-17 19:02:00,78.0,62.5,30.15,SSE,156,1.0,4.0,59,0.00,,---,0.00,VWS V14.01,2013-04-17 23:02:00,
2013-04-17 19:08:00,77.8,62.3,30.15,SSE,161,0.0,4.0,59,0.00,,---,0.00,VWS V14.01,2013-04-17 23:08:00,
2013-04-17 19:13:00,77.6,63.1,30.15,SSE,161,0.0,4.0,61,0.00,,---,0.00,VWS V14.01,2013-04-17 23:13:00,
2013-04-17 19:18:00,77.4,63.4,30.15,SSE,161,0.0,0.0,62,0.00,,---,0.00,VWS V14.01,2013-04-17 23:18:00,
2013-04-17 19:23:00,76.6,64.0,30.15,SSE,161,0.0,0.0,65,0.00,,---,0.00,VWS V14.01,2013-04-17 23:23:00,
2013-04-17 19:28:00,76.1,63.5,30.15,SSE,161,0.0,0.0,65,0.00,,---,0.00,VWS V14.01,2013-04-17 23:28:00,
2013-04-17 19:33:00,76.0,63.8,30.15,SSE,161,0.0,0.0,66,0.00,,---,0.00,VWS V14.01,2013-04-17 23:33:00,
2013-04-17 19:39:00,75.7,64.0,30.15,SSE,161,0.0,0.0,67,0.00,,---,0.00,VWS V14.01,2013-04-17 23:39:00,
2013-04-17 19:44:00,75.2,63.9,30.15,SSE,161,0.0,0.0,68,0.00,,---,0.00,VWS V14.01,2013-04-17 23:44:00,
2013-04-17 19:49:00,74.9,64.1,30.15,SSE,161,0.0,0.0,69,0.00,,---,0.00,VWS V14.01,2013-04-17 23:49:00,
2013-04-17 19:54:00,74.6,64.2,30.15,SSE,161,0.0,0.0,70,0.00,,---,0.00,VWS V14.01,2013-04-17 23:54:00,
2013-04-17 19:59:00,74.3,63.9,30.15,SSE,161,0.0,0.0,70,0.00,,---,0.00,VWS V14.01,2013-04-17 23:59:00,
2013-04-17 20:04:00,74.2,63.8,30.15,SSE,161,0.0,0.0,70,0.00,,---,0.00,VWS V14.01,2013-04-18 00:04:00,
2013-04-17 20:09:00,74.0,64.0,30.15,SSE,161,0.0,0.0,71,0.00,,---,0.00,VWS V14.01,2013-04-18 00:09:00,
2013-04-17 20:14:00,73.8,64.2,30.16,SSE,161,0.0,0.0,72,0.00,,---,0.00,VWS V14.01,2013-04-18 00:14:00,
2013-04-17 20:20:00,73.7,64.1,30.16,SSE,161,0.0,0.0,72,0.00,,---,0.00,VWS V14.01,2013-04-18 00:20:00,
2013-04-17 20:25:00,73.5,63.9,30.16,SSE,161,0.0,0.0,72,0.00,,---,0.00,VWS V14.01,2013-04-18 00:25:00,
2013-04-17 20:30:00,73.4,64.2,30.16,SSE,161,0.0,0.0,73,0.00,,---,0.00,VWS V14.01,2013-04-18 00:30:00,
2013-04-17 20:35:00,73.5,64.3,30.16,SSE,161,0.0,0.0,73,0.00,,---,0.00,VWS V14.01,2013-04-18 00:35:00,
2013-04-17 20:40:00,73.9,63.9,30.16,South,171,1.0,4.0,71,0.00,,---,0.00,VWS V14.01,2013-04-18 00:40:00,
2013-04-17 20:45:00,74.3,63.9,30.16,SSE,150,0.0,4.0,70,0.00,,---,0.00,VWS V14.01,2013-04-18 00:45:00,
2013-04-17 20:50:00,74.4,64.0,30.16,SSE,150,0.0,0.0,70,0.00,,---,0.00,VWS V14.01,2013-04-18 00:50:00,
2013-04-17 20:56:00,73.9,64.3,30.16,SSE,150,0.0,0.0,72,0.00,,---,0.00,VWS V14.01,2013-04-18 00:56:00,
2013-04-17 21:01:00,73.5,64.3,30.16,SSE,150,0.0,1.0,73,0.00,,---,0.00,VWS V14.01,2013-04-18 01:01:00,
2013-04-17 21:06:00,72.8,64.0,30.16,SSE,150,0.0,0.0,74,0.00,,---,0.00,VWS V14.01,2013-04-18 01:06:00,
2013-04-17 21:12:00,72.9,64.1,30.17,SSE,150,0.0,1.0,74,0.00,,---,0.00,VWS V14.01,2013-04-18 01:12:00,
2013-04-17 21:17:00,73.2,64.0,30.17,SSE,164,0.0,1.0,73,0.00,,---,0.00,VWS V14.01,2013-04-18 01:17:00,
2013-04-17 21:22:00,73.8,64.2,30.17,South,171,1.0,7.0,72,0.00,,---,0.00,VWS V14.01,2013-04-18 01:22:00,
2013-04-17 21:27:00,74.2,64.2,30.17,SSE,149,6.0,7.0,71,0.00,,---,0.00,VWS V14.01,2013-04-18 01:27:00,
2013-04-17 21:32:00,74.1,64.1,30.17,SSE,159,7.0,11.0,71,0.00,,---,0.00,VWS V14.01,2013-04-18 01:32:00,
2013-04-17 21:37:00,73.8,63.8,30.17,South,171,5.0,11.0,71,0.00,,---,0.00,VWS V14.01,2013-04-18 01:37:00,
2013-04-17 21:43:00,73.6,63.6,30.18,South,176,4.0,11.0,71,0.00,,---,0.00,VWS V14.01,2013-04-18 01:43:00,
2013-04-17 21:48:00,73.3,63.7,30.18,SE,132,2.0,5.0,72,0.00,,---,0.00,VWS V14.01,2013-04-18 01:48:00,
2013-04-17 21:53:00,72.9,63.8,30.18,South,182,0.0,7.0,73,0.00,,---,0.00,VWS V14.01,2013-04-18 01:53:00,
2013-04-17 21:58:00,72.6,63.8,30.18,ESE,119,4.0,7.0,74,0.00,,---,0.00,VWS V14.01,2013-04-18 01:58:00,
2013-04-17 22:03:00,72.4,63.7,30.18,WSW,240,8.0,9.0,74,0.00,,---,0.00,VWS V14.01,2013-04-18 02:03:00,
2013-04-17 22:08:00,72.2,63.5,30.18,SSW,202,7.0,9.0,74,0.00,,---,0.00,VWS V14.01,2013-04-18 02:08:00,
2013-04-17 22:14:00,72.0,63.3,30.18,SSE,163,4.0,9.0,74,0.00,,---,0.00,VWS V14.01,2013-04-18 02:14:00,
2013-04-17 22:19:00,72.0,63.3,30.18,SSE,155,7.0,9.0,74,0.00,,---,0.00,VWS V14.01,2013-04-18 02:19:00,
2013-04-17 22:24:00,71.9,63.2,30.18,South,181,7.0,9.0,74,0.00,,---,0.00,VWS V14.01,2013-04-18 02:24:00,
2013-04-17 22:29:00,71.8,63.5,30.18,SSE,161,8.0,9.0,75,0.00,,---,0.00,VWS V14.01,2013-04-18 02:29:00,
2013-04-17 22:34:00,71.7,63.4,30.18,SSE,162,4.0,6.0,75,0.00,,---,0.00,VWS V14.01,2013-04-18 02:34:00,
2013-04-17 22:39:00,71.5,63.5,30.18,SSE,155,3.0,7.0,76,0.00,,---,0.00,VWS V14.01,2013-04-18 02:39:00,
2013-04-17 22:44:00,71.4,63.5,30.18,SSE,167,2.0,7.0,76,0.00,,---,0.00,VWS V14.01,2013-04-18 02:44:00,
2013-04-17 22:50:00,71.2,63.6,30.18,SSE,166,0.0,5.0,77,0.00,,---,0.00,VWS V14.01,2013-04-18 02:50:00,
2013-04-17 22:55:00,71.1,63.9,30.18,SSE,157,4.0,6.0,78,0.00,,---,0.00,VWS V14.01,2013-04-18 02:55:00,
2013-04-17 23:00:00,71.0,63.8,30.18,SSE,148,5.0,7.0,78,0.00,,---,0.00,VWS V14.01,2013-04-18 03:00:00,
2013-04-17 23:05:00,70.9,63.7,30.18,South,190,1.0,6.0,78,0.00,,---,0.00,VWS V14.01,2013-04-18 03:05:00,
2013-04-17 23:10:00,70.9,63.7,30.18,SSE,162,1.0,6.0,78,0.00,,---,0.00,VWS V14.01,2013-04-18 03:10:00,
2013-04-17 23:15:00,70.8,63.6,30.18,South,180,4.0,6.0,78,0.00,,---,0.00,VWS V14.01,2013-04-18 03:15:00,
2013-04-17 23:20:00,70.8,63.6,30.18,SSW,209,1.0,4.0,78,0.00,,---,0.00,VWS V14.01,2013-04-18 03:20:00,
2013-04-17 23:26:00,70.7,63.9,30.17,SSE,156,1.0,4.0,79,0.00,,---,0.00,VWS V14.01,2013-04-18 03:26:00,
2013-04-17 23:31:00,70.5,63.7,30.17,SSE,160,2.0,2.0,79,0.00,,---,0.00,VWS V14.01,2013-04-18 03:31:00,
2013-04-17 23:36:00,70.4,63.6,30.17,South,182,1.0,5.0,79,0.00,,---,0.00,VWS V14.01,2013-04-18 03:36:00,
2013-04-17 23:41:00,70.2,63.8,30.17,SSE,165,1.0,5.0,80,0.00,,---,0.00,VWS V14.01,2013-04-18 03:41:00,
2013-04-17 23:46:00,70.1,63.7,30.17,SW,224,0.0,0.0,80,0.00,,---,0.00,VWS V14.01,2013-04-18 03:46:00,
2013-04-17 23:51:00,69.9,63.8,30.18,South,181,0.0,4.0,81,0.00,,---,0.00,VWS V14.01,2013-04-18 03:51:00,
2013-04-17 23:57:00,69.9,63.8,30.18,South,184,1.0,4.0,81,0.00,,---,0.00,VWS V14.01,2013-04-18 03:57:00,